Temp
89 89 91 92 92 90 90 89 88 89 89 87 86 86 86 85 84 81 82 80 81 81 84 83 83 84 86 92 93 93 92 92 88 94 97 92 89 89 92 90 92 91 86
93 88 86 91 90 92 90 91 91 88 88 87 86 86 86 86 84 83 81 80 81 79 80 83 83 83 82 85 86 83 90 90 89 85 92 91 86 88 89 86 91 95 93
94 94 92 93 91 90 91 90 91 89 88 89 86 85 86 86 85 83 83 82 82 74 78 81 83 84 82 85 87 88 89 89 88 87 89 92 92 90 86 86 87 89 92
94 92 91 90 91 92 91 90 90 89 87 87 87 86 86 87 87 86 85 83 81 75 73 78 81 83 84 84 86 84 87 86 86 87 88 90 88 88 88 86 84 87 89
89 88 88 87 88 88 88 89 89 88 88 87 86 87 88 89 91 87 86 83 82 81 80 79 82 85 81 83 87 85 82 85 88 86 87 89 88 87 83 88 87 88 86
85 84 85 85 85 85 86 86 86 86 87 86 86 86 85 86 79 75 83 86 84 81 80 82 83 80 80 75 74 74 81 82 82 88 87 86 85 86 87 87 87 86 83
83 83 83 83 82 83 84 83 82 82 83 82 82 82 81 83 69 70 72 86 86 85 84 85 86 91 82 86 74 72 73 72 76 82 80 84 85 86 86 82 84 85 85
82 81 81 81 81 80 80 80 79 79 79 80 81 81 81 82 68 67 70 81 82 84 85 84 85 86 86 85 85 83 82 85 83 86 85 85 86 88 85 84 83 83 87
79 79 79 80 79 80 80 78 77 77 77 78 80 80 79 80 67 66 69 80 79 79 82 83 82 82 77 72 82 82 84 86 78 73 74 73 71 70 76 81 79 78 82
77 77 78 79 79 79 79 80 81 78 77 80 82 81 77 79 68 65 68 82 79 75 75 76 70 79 68 66 77 80 80 84 83 82 81 76 73 78 70 81 77 76 81
76 77 76 77 76 78 78 79 79 79 77 79 79 80 81 79 78 62 62 77 78 70 71 72 78 65 63 60 65 78 81 81 78 82 80 83 83 82 81 81 82 78 77
75 75 74 74 76 79 76 76 77 77 77 78 79 80 85 82 67 62 60 62 72 79 78 77 80 63 60 60 64 67 63 67 82 86 86 87 82 77 83 83 81 82 84
73 73 73 73 74 74 73 73 77 77 78 78 81 83 85 87 87 65 60 61 62 73 82 76 67 59 58 60 60 63 61 78 80 82 84 86 87 86 84 81 78 76 75
72 72 74 74 71 74 76 78 78 79 79 80 80 79 82 82 84 85 82 70 63 68 70 71 70 68 64 70 70 66 72 77 80 81 82 84 84 78 72 72 70 69 66
72 74 74 77 75 74 76 76 75 75 72 73 76 78 79 76 78 58 63 76 77 75 75 80 78 77 75 68 74 78 79 74 77 80 79 78 78 72 70 69 69 67 66
71 75 75 74 74 75 74 75 61 58 56 53 50 57 72 62 54 48 47 47 49 52 74 79 79 79 76 78 80 79 76 73 78 79 79 74 70 70 69 67 67 66 65
65 71 72 67 71 72 72 72 70 69 59 54 52 49 47 49 45 44 44 46 48 52 73 80 79 81 81 80 84 85 83 83 79 78 80 79 73 70 67 68 66 65 64
67 58 65 65 66 63 64 68 68 67 68 70 60 55 49 46 44 44 43 48 68 58 71 76 71 74 77 80 78 78 74 85 82 81 77 75 72 72 68 66 65 64 64
71 71 69 68 68 66 63 64 66 70 69 69 70 63 55 48 48 45 45 63 75 79 75 75 80 77 76 75 77 75 71 74 75 74 78 80 80 72 67 67 66 59 61
68 64 65 71 71 63 63 66 68 72 72 74 74 75 76 70 75 76 75 76 77 77 73 73 71 70 69 63 64 64 71 75 76 75 75 76 77 77 73 73 70 68 66
71 70 64 71 68 67 66 67 73 72 72 74 75 72 52 72 75 76 74 72 76 75 73 71 73 72 69 70 71 65 63 63 64 67 71 74 76 75 74 74 77 79 75
73 70 69 67 64 64 66 67 70 73 74 75 76 75 57 75 78 77 74 74 75 75 74 72 71 74 75 71 67 67 70 68 68 69 66 67 70 73 74 75 75 74 71
69 65 66 66 68 65 68 69 71 71 69 67 69 67 68 70 72 72 66 62 70 70 71 69 69 68 67 65 71 66 66 66 68 68 66 66 64 65 67 70 70 70 68
74 71 71 69 69 70 68 67 68 62 72 72 68 65 64 62 61 61 62 63 67 63 61 62 62 62 60 61 61 62 66 68 70 70 71 70 71 69 70 68 67 67 68
76 76 75 74 73 73 73 71 68 68 71 71 68 64 64 64 61 59 58 59 56 56 60 63 66 65 64 65 66 69 62 42 59 54 70 71 71 69 66 66 66 66 67
75 75 75 76 74 73 73 72 71 70 69 71 70 65 63 63 65 64 60 58 56 55 55 56 56 57 60 64 57 45 35 37 48 38 54 61 63 63 64 64 64 63 65
MSLP
1010.09 1010.32 1010.38 1010.65 1010.99 1011.46 1011.70 1011.82 1012.08 1012.26 1012.46 1013.03 1013.22 1013.53 1013.84 1014.32 1014.86 1015.27 1015.43 1015.79 1016.02 1016.08 1016.58 1016.88 1016.94 1017.21 1016.87 1016.09 1016.17 1016.24 1016.17 1016.16 1015.76 1015.20 1015.46 1016.57 1017.59 1017.76 1017.78 1018.77 1018.69 1019.18 1019.97
1008.95 1009.70 1010.20 1010.32 1010.64 1010.53 1010.93 1011.13 1011.30 1011.67 1012.08 1012.54 1012.98 1013.25 1013.45 1013.85 1014.41 1014.77 1015.22 1015.38 1015.42 1015.65 1016.06 1016.34 1016.22 1016.46 1016.76 1016.53 1016.10 1016.49 1015.74 1015.92 1016.00 1015.67 1015.40 1016.26 1017.35 1017.68 1017.74 1018.40 1018.31 1018.22 1018.48
1008.40 1008.85 1009.22 1009.40 1009.76 1010.01 1010.17 1010.58 1010.62 1010.89 1011.26 1011.71 1012.14 1012.46 1012.75 1013.09 1013.55 1014.09 1014.45 1014.84 1014.82 1015.06 1014.98 1015.25 1015.65 1015.61 1015.73 1015.81 1015.60 1015.56 1015.58 1015.94 1016.02 1015.96 1015.43 1015.93 1016.12 1017.07 1017.67 1018.03 1018.12 1018.03 1018.06
1008.27 1008.55 1008.72 1009.10 1009.14 1009.39 1009.56 1009.89 1010.12 1010.25 1010.52 1010.65 1011.00 1011.38 1011.64 1011.94 1012.40 1012.91 1013.40 1013.87 1014.20 1014.30 1014.28 1013.63 1014.33 1014.86 1014.86 1014.92 1014.91 1015.02 1014.99 1015.22 1015.60 1015.69 1015.44 1015.26 1016.00 1016.50 1017.00 1017.16 1017.64 1017.94 1017.66
1008.65 1008.87 1009.01 1009.23 1009.23 1009.37 1009.54 1009.56 1009.77 1010.01 1010.13 1010.54 1010.64 1010.52 1010.87 1011.06 1011.20 1011.81 1012.27 1012.92 1013.08 1013.15 1013.66 1013.72 1013.85 1013.67 1013.83 1013.86 1014.04 1014.38 1014.69 1014.99 1014.75 1014.91 1014.88 1014.76 1014.92 1015.60 1016.20 1016.13 1016.28 1016.50 1017.19
1009.21 1009.26 1009.37 1009.42 1009.51 1009.55 1009.46 1009.55 1009.82 1010.00 1010.05 1010.25 1010.27 1010.32 1010.38 1010.62 1010.49 1010.78 1011.30 1011.83 1012.26 1012.68 1012.46 1012.57 1012.89 1012.97 1012.89 1012.94 1013.20 1013.63 1013.91 1014.34 1014.26 1013.78 1014.05 1014.08 1014.38 1014.85 1015.28 1015.37 1015.54 1015.64 1015.81
1009.61 1009.68 1009.67 1009.74 1009.65 1009.45 1009.47 1009.56 1009.69 1009.86 1010.05 1010.09 1010.27 1010.49 1010.49 1010.40 1010.50 1010.99 1011.26 1011.24 1011.19 1011.35 1011.54 1011.27 1011.47 1011.29 1011.59 1012.12 1012.83 1013.01 1013.23 1013.68 1013.86 1013.96 1013.92 1013.60 1013.69 1014.23 1014.46 1014.95 1014.83 1015.06 1014.86
1010.07 1010.15 1010.13 1009.96 1009.75 1009.69 1009.63 1009.64 1009.78 1009.85 1009.90 1009.96 1010.01 1010.13 1010.31 1010.27 1010.52 1010.83 1011.01 1010.92 1010.73 1010.38 1010.20 1010.32 1010.37 1010.06 1010.20 1011.00 1011.59 1011.95 1012.43 1012.58 1013.19 1013.34 1013.31 1013.51 1013.62 1013.55 1014.12 1014.29 1014.59 1014.79 1014.77
1010.33 1010.31 1010.25 1010.08 1009.86 1009.64 1009.41 1009.41 1009.61 1009.65 1009.67 1009.69 1009.61 1009.57 1009.56 1009.47 1009.77 1010.24 1010.60 1010.25 1009.94 1009.58 1009.29 1009.25 1009.60 1009.69 1009.35 1009.66 1010.64 1010.86 1010.98 1011.00 1011.43 1012.15 1012.42 1012.71 1013.09 1013.46 1013.58 1014.07 1014.03 1014.38 1013.87
1010.80 1010.72 1010.56 1010.29 1010.03 1009.74 1009.55 1009.36 1009.17 1009.27 1009.20 1009.06 1008.84 1009.03 1009.06 1009.09 1009.19 1009.70 1010.07 1009.52 1008.88 1008.98 1009.00 1008.84 1008.75 1008.77 1008.94 1009.04 1009.67 1010.12 1010.22 1010.07 1010.85 1011.57 1012.13 1012.67 1012.83 1012.92 1013.36 1013.35 1013.54 1013.62 1013.33
1011.27 1011.03 1010.84 1010.63 1010.32 1009.80 1009.51 1009.24 1009.00 1008.83 1008.68 1008.47 1008.32 1008.23 1008.01 1008.20 1008.37 1008.91 1009.17 1009.05 1008.62 1008.69 1008.54 1008.28 1007.81 1007.75 1008.48 1009.22 1008.91 1009.31 1009.26 1009.70 1010.11 1010.62 1011.02 1011.06 1011.40 1011.72 1012.31 1012.76 1012.78 1012.95 1012.90
1011.51 1011.13 1010.94 1010.84 1010.53 1009.86 1009.65 1009.32 1008.91 1008.61 1008.18 1007.76 1007.49 1007.23 1006.68 1007.00 1007.56 1008.29 1008.38 1008.49 1007.92 1007.92 1007.53 1007.38 1006.42 1006.94 1007.78 1008.58 1009.01 1008.97 1009.30 1009.20 1009.48 1009.40 1009.20 1009.04 1009.89 1010.80 1010.93 1011.26 1011.52 1011.69 1011.88
1011.51 1011.18 1010.92 1010.71 1010.40 1010.25 1009.87 1009.32 1008.68 1008.13 1007.84 1007.52 1006.73 1006.11 1005.72 1005.58 1005.74 1006.39 1007.06 1007.35 1007.47 1007.52 1006.68 1006.47 1006.65 1007.11 1007.61 1008.34 1008.38 1008.73 1009.15 1009.22 1009.05 1008.77 1008.21 1008.05 1008.49 1009.18 1010.08 1010.55 1011.28 1011.68 1011.91
1011.58 1011.27 1010.86 1010.49 1010.29 1009.77 1009.38 1008.77 1008.27 1007.87 1007.41 1006.96 1006.70 1006.43 1006.10 1006.02 1005.82 1005.72 1005.71 1006.71 1006.99 1006.78 1006.35 1006.29 1006.59 1006.62 1006.96 1006.81 1007.65 1008.36 1008.51 1007.73 1007.60 1007.43 1007.57 1007.85 1008.68 1009.38 1009.94 1010.50 1011.02 1011.43 1011.84
1011.35 1010.97 1010.57 1010.17 1009.98 1009.67 1009.05 1008.65 1008.58 1008.42 1008.41 1008.55 1007.81 1007.20 1006.37 1006.12 1006.21 1007.17 1006.89 1006.19 1005.85 1005.28 1005.15 1004.95 1005.50 1005.49 1005.44 1005.73 1006.15 1006.63 1006.92 1007.11 1006.65 1006.82 1007.19 1007.79 1008.34 1008.88 1009.33 1009.82 1010.28 1010.88 1010.89
1011.23 1010.49 1010.23 1010.30 1009.86 1009.39 1009.03 1008.53 1008.44 1008.56 1008.51 1008.57 1008.47 1008.70 1007.85 1007.45 1007.28 1007.26 1007.09 1006.92 1006.59 1006.38 1005.32 1004.40 1004.10 1004.15 1004.56 1004.70 1004.48 1005.53 1006.00 1006.10 1006.39 1006.65 1006.81 1007.41 1007.75 1008.22 1008.64 1009.18 1009.59 1009.90 1010.30
1011.79 1010.95 1010.69 1010.79 1010.23 1009.63 1009.20 1008.68 1008.22 1008.21 1008.11 1007.71 1007.55 1007.66 1007.91 1007.67 1007.71 1007.56 1007.12 1006.86 1006.40 1006.28 1005.10 1003.65 1003.19 1003.02 1003.32 1003.45 1003.63 1003.69 1004.07 1004.39 1005.41 1006.13 1006.07 1006.33 1006.95 1007.61 1008.03 1008.25 1008.77 1009.13 1009.41
1011.94 1011.68 1011.39 1011.00 1010.63 1010.53 1010.13 1009.50 1009.12 1008.47 1007.67 1007.23 1006.95 1007.15 1007.13 1007.16 1007.15 1007.04 1006.86 1006.49 1005.60 1005.45 1004.57 1003.39 1003.18 1002.85 1003.15 1003.09 1003.42 1003.80 1003.76 1003.46 1004.02 1004.83 1005.70 1006.15 1006.45 1006.82 1007.52 1007.86 1007.99 1008.42 1008.71
1011.59 1011.27 1011.21 1010.90 1010.70 1010.42 1010.38 1009.84 1009.35 1008.33 1007.63 1006.98 1006.74 1006.38 1006.43 1006.62 1006.38 1006.26 1006.44 1006.08 1004.34 1003.25 1003.12 1003.32 1002.54 1002.68 1002.51 1002.53 1003.29 1003.38 1003.94 1003.90 1004.22 1004.69 1004.98 1005.12 1005.38 1006.22 1006.57 1007.04 1007.58 1007.45 1007.76
1011.69 1011.67 1011.42 1010.68 1010.22 1010.36 1010.09 1009.61 1008.78 1007.84 1007.13 1006.25 1005.78 1005.74 1005.46 1005.57 1005.18 1004.63 1004.61 1004.20 1003.80 1003.35 1003.39 1003.22 1003.31 1003.46 1003.68 1004.10 1004.01 1003.66 1004.25 1004.12 1004.21 1004.51 1004.59 1004.79 1005.14 1005.18 1005.35 1006.10 1006.37 1006.78 1006.63
1011.42 1011.28 1011.30 1010.65 1010.51 1010.16 1009.96 1009.44 1008.28 1007.94 1007.39 1006.68 1005.88 1005.71 1006.47 1006.04 1004.87 1004.17 1003.92 1003.97 1003.68 1003.39 1003.34 1003.31 1003.28 1003.39 1003.46 1003.83 1003.83 1004.21 1003.75 1004.09 1003.69 1004.50 1004.73 1004.35 1004.82 1004.37 1004.25 1004.88 1004.70 1004.72 1004.86
1011.61 1011.69 1011.39 1011.15 1011.05 1010.69 1010.11 1009.44 1008.64 1007.85 1007.04 1006.31 1005.89 1005.70 1005.71 1005.43 1004.16 1003.75 1003.92 1003.98 1003.80 1003.73 1003.84 1004.04 1004.26 1003.96 1003.56 1003.64 1003.55 1003.59 1003.13 1003.13 1003.01 1003.57 1002.99 1003.53 1003.55 1003.62 1003.28 1003.25 1003.78 1003.87 1003.89
1012.34 1012.18 1011.76 1011.58 1011.05 1010.51 1009.93 1009.49 1008.83 1008.30 1008.01 1007.81 1007.15 1006.84 1006.51 1005.83 1005.16 1004.87 1004.87 1004.83 1004.19 1004.23 1004.07 1004.05 1003.98 1003.94 1003.96 1003.91 1003.71 1003.55 1003.13 1002.83 1002.59 1001.79 1002.10 1002.52 1002.60 1002.89 1002.32 1001.89 1003.03 1003.56 1003.54
1011.82 1011.81 1011.39 1011.37 1011.06 1010.49 1010.49 1010.16 1009.42 1008.87 1008.01 1007.62 1007.79 1007.71 1007.45 1007.07 1006.62 1006.23 1005.79 1005.39 1004.63 1004.35 1004.25 1004.07 1003.86 1003.59 1003.55 1003.45 1003.57 1003.16 1002.81 1002.30 1001.80 1001.68 1001.60 1001.69 1001.82 1002.13 1001.79 1001.26 1002.32 1003.01 1003.11
1011.37 1011.08 1010.82 1010.69 1010.54 1010.24 1010.02 1009.95 1009.82 1009.54 1008.65 1008.37 1008.36 1008.35 1008.01 1007.71 1007.39 1007.13 1006.70 1006.23 1005.81 1005.28 1004.48 1004.23 1003.79 1003.53 1003.39 1003.42 1003.08 1002.54 1001.69 1001.61 1001.52 1001.32 1001.54 1001.27 1001.30 1001.42 1001.71 1002.03 1002.23 1002.30 1002.22
1011.59 1011.31 1011.02 1010.74 1010.64 1010.46 1010.16 1009.91 1009.65 1009.56 1009.20 1008.66 1008.46 1008.47 1008.33 1007.88 1007.35 1007.06 1006.93 1006.63 1006.28 1005.81 1005.25 1004.99 1004.45 1004.08 1003.63 1003.36 1003.35 1002.99 1002.45 1002.17 1002.11 1001.98 1002.02 1001.84 1001.34 1001.10 1001.10 1001.16 1001.08 1001.22 1001.52
Wind_Speed
16 15 15 13 14 13 13 14 14 13 12 12 11 11 12 12 14 15 13 11 12 10 11 11 12 12 10 9 9 9 9 8 9 8 4 10 7 7 8 9 9 10 11
11 11 9 12 13 13 13 14 13 13 13 12 12 11 11 12 13 15 14 10 14 13 10 12 15 10 12 13 8 9 9 8 9 9 4 7 8 9 8 9 10 9 10
8 12 13 13 13 13 13 14 14 14 14 14 14 14 13 14 14 15 14 14 14 8 11 13 17 14 14 13 14 12 12 10 9 10 8 8 7 7 7 7 9 9 8
5 6 7 10 10 11 12 13 14 14 14 16 16 15 16 16 16 16 16 16 17 12 13 16 16 17 17 16 15 13 11 9 10 9 10 8 7 8 8 8 9 9 10
2 5 6 7 8 9 10 11 12 13 13 14 14 16 16 15 14 18 18 19 18 19 18 16 17 22 20 17 12 13 13 12 11 11 10 10 9 9 10 9 9 9 10
3 3 5 5 7 9 10 9 10 11 12 13 14 14 12 9 11 13 16 17 18 18 16 19 19 19 18 17 15 13 13 14 13 12 11 11 10 10 9 10 10 10 9
4 5 5 3 5 7 8 9 10 10 11 10 10 8 8 10 1 6 11 16 16 18 18 16 18 17 17 17 16 15 16 11 15 12 13 11 11 12 11 12 11 11 10
5 5 6 6 5 4 6 7 8 9 10 10 11 11 11 12 10 10 13 18 17 18 17 18 17 16 15 16 17 17 19 20 18 14 16 15 14 10 13 12 11 11 10
9 9 9 9 8 8 7 4 6 8 8 9 11 12 13 13 9 11 10 14 16 20 18 17 18 17 16 18 16 16 16 17 16 20 18 11 11 11 12 9 10 10 12
9 9 10 10 10 9 9 8 8 6 7 9 10 11 12 13 9 14 12 12 12 10 12 15 16 17 12 18 15 14 15 16 12 12 12 13 13 12 13 14 9 10 12
7 8 8 9 10 10 10 9 9 9 9 10 11 10 10 11 10 14 16 13 11 9 10 8 12 16 11 11 15 13 16 11 11 11 11 11 10 13 12 14 14 12 11
8 9 9 9 9 9 11 10 10 10 11 10 10 10 9 11 12 14 17 19 13 12 13 11 11 13 14 14 11 14 7 5 8 11 12 11 10 10 13 14 15 14 12
8 8 8 9 9 9 10 11 10 10 8 10 10 10 9 8 9 16 19 22 22 16 15 13 7 7 11 10 13 10 10 10 11 13 13 12 11 11 13 10 13 13 11
7 7 6 8 7 8 8 8 8 9 9 10 9 9 10 9 10 9 8 10 16 13 16 8 9 8 12 7 8 11 11 10 12 13 13 11 10 8 8 8 8 8 9
8 8 8 7 8 8 7 8 9 9 9 11 11 12 11 8 5 9 8 7 8 5 7 8 9 10 8 5 7 8 10 9 10 12 11 11 12 7 7 7 8 8 10
10 7 7 7 8 8 8 8 5 11 11 11 11 8 12 12 15 14 12 11 10 9 8 8 8 8 8 11 11 11 10 8 10 11 11 10 8 9 8 6 7 8 9
7 9 9 8 10 9 9 9 10 9 12 15 15 10 12 11 11 11 14 13 8 5 9 10 10 10 11 10 12 12 11 12 12 11 10 10 8 7 6 8 8 8 8
8 3 6 7 6 7 9 10 9 10 11 10 6 8 10 5 6 6 8 7 8 6 9 11 7 9 9 10 8 8 6 9 10 8 9 9 8 10 7 7 8 9 8
6 6 8 7 8 7 7 8 8 9 10 10 8 7 8 7 6 4 2 6 10 10 5 10 10 10 10 7 6 2 5 5 5 6 9 10 10 9 7 8 8 10 10
5 5 8 8 7 6 5 7 9 8 10 10 6 5 7 4 9 8 6 6 7 7 5 7 6 4 3 4 5 1 3 7 6 6 8 8 9 10 9 12 11 11 11
4 5 5 8 9 8 5 6 7 6 9 10 11 8 7 9 9 8 6 6 8 8 8 6 6 7 5 6 9 7 7 9 7 7 9 9 12 11 11 14 13 14 12
8 7 7 8 7 9 9 8 10 10 12 11 10 10 8 10 9 8 8 8 9 8 6 5 6 8 8 8 5 7 10 9 9 10 9 11 11 12 12 12 13 11 10
5 6 7 8 9 8 7 6 8 8 8 11 12 12 13 13 12 9 7 7 8 8 8 7 7 7 7 7 10 7 7 8 9 6 7 8 10 12 13 9 8 11 10
4 3 4 4 6 6 8 10 9 11 11 11 10 10 11 11 11 12 11 13 12 6 4 5 4 6 7 8 8 10 10 13 11 10 15 13 11 10 10 9 9 11 10
5 5 5 7 7 7 7 7 8 9 10 10 9 10 11 10 9 9 9 10 8 9 14 12 8 11 14 18 19 20 15 8 9 11 10 12 14 15 8 7 8 9 13
5 6 6 7 7 8 8 7 7 7 8 8 8 7 7 9 9 9 9 9 8 7 8 7 11 17 18 13 14 15 9 9 7 8 6 8 10 10 9 10 13 9 12
Wind_Direction
214 221 226 230 230 228 237 234 235 236 232 230 215 209 206 203 203 203 210 209 217 204 224 236 240 234 258 251 219 228 234 236 251 262 198 127 189 221 170 210 203 206 170
222 219 238 235 243 234 229 239 225 227 222 225 225 222 212 208 204 211 213 213 209 201 226 249 235 234 232 242 249 253 235 229 249 242 232 180 221 196 212 196 228 206 219
208 213 212 226 225 232 236 232 232 220 220 218 214 217 213 211 210 208 214 208 214 194 214 241 255 231 226 227 226 216 219 231 212 254 241 211 217 197 198 216 217 231 222
242 217 229 235 235 239 236 233 232 225 221 216 215 215 213 210 210 214 208 206 209 215 217 232 225 239 231 217 228 224 242 230 221 229 234 233 207 186 215 205 211 228 219
246 245 235 247 250 244 251 247 239 238 233 237 232 225 224 218 213 209 209 205 208 216 219 224 235 227 225 228 217 218 225 219 230 213 231 224 204 199 213 215 223 208 212
341 324 313 268 256 261 260 250 251 253 249 249 246 246 246 243 241 198 217 216 217 213 223 224 230 231 221 208 213 234 217 221 231 234 219 228 223 205 216 225 216 213 216
39 32 22 323 285 279 268 264 261 259 261 259 261 258 258 263 321 191 224 231 229 229 229 221 221 221 211 220 217 223 231 233 221 224 246 237 216 214 229 204 223 215 224
30 14 4 349 338 329 299 278 277 269 258 247 242 247 254 256 235 204 215 230 239 243 235 232 227 220 209 208 222 211 225 227 227 227 231 236 244 237 218 230 226 222 229
19 13 4 355 341 328 310 267 247 250 255 256 256 260 260 262 207 207 222 236 239 239 239 232 228 226 204 191 207 217 222 221 212 212 228 246 255 231 236 224 226 222 225
4 354 349 346 338 327 318 303 295 284 261 255 260 261 257 257 213 205 215 249 255 248 251 244 232 236 204 187 205 218 225 229 223 223 223 237 242 240 206 220 243 231 237
339 330 330 330 324 312 315 311 298 286 281 275 264 255 250 227 219 195 211 233 246 250 260 250 231 200 214 208 208 212 227 225 219 222 213 225 234 227 222 221 228 233 230
329 323 323 318 313 313 309 302 300 293 284 278 272 268 255 235 210 194 204 218 241 242 240 246 262 175 196 204 193 226 214 178 221 228 232 234 211 216 222 213 213 219 231
327 328 324 323 316 315 299 296 289 274 268 286 287 283 284 276 252 214 203 212 225 240 248 241 227 175 194 197 211 213 187 214 226 228 239 235 241 217 220 225 220 227 225
321 314 313 308 335 306 305 295 294 291 286 285 267 256 270 285 271 265 256 203 230 231 237 233 233 220 210 186 183 215 229 219 229 235 236 243 254 239 220 204 214 206 214
317 312 307 323 331 319 316 317 310 303 326 318 306 306 303 291 288 343 340 319 317 289 227 226 217 220 210 178 220 223 211 210 214 232 229 235 235 218 213 198 205 204 220
320 319 334 320 324 325 329 326 246 240 277 278 264 254 289 293 318 339 331 316 308 293 251 242 231 225 221 216 206 210 217 220 227 222 224 226 225 221 214 201 202 207 216
325 328 344 339 329 325 322 324 325 328 277 243 251 235 219 274 309 309 300 294 269 254 244 248 241 223 225 222 221 219 204 206 206 237 252 239 222 222 197 205 202 206 219
336 357 321 309 308 312 313 320 324 313 323 324 319 251 211 247 303 319 316 296 248 222 253 253 250 244 230 222 226 242 272 252 204 221 220 231 225 230 214 218 205 211 220
342 2 337 336 321 316 314 300 299 302 319 323 330 291 196 226 234 257 231 266 293 301 230 271 255 249 239 205 213 207 253 261 300 201 227 237 226 208 219 214 221 210 209
345 26 320 339 342 326 312 306 288 324 318 316 338 318 316 290 287 302 282 291 298 297 271 265 259 274 281 294 279 112 272 314 289 264 247 248 240 247 224 226 211 220 211
350 10 346 3 1 358 344 304 310 325 319 327 326 18 7 309 296 290 279 353 324 332 346 337 311 276 276 239 224 232 219 201 229 255 270 262 259 238 212 228 242 230 219
27 18 354 33 14 10 358 345 341 340 333 331 331 330 335 300 317 320 316 313 332 308 301 308 311 313 306 281 274 266 257 241 229 233 225 228 248 245 236 223 227 233 222
38 18 19 17 359 13 9 8 9 12 10 1 356 353 348 341 335 340 325 303 309 316 308 284 280 299 310 306 300 285 287 284 276 272 262 242 246 258 268 234 221 233 226
93 53 41 38 24 25 21 5 4 1 1 21 14 9 8 6 6 7 2 358 327 282 277 282 279 283 302 303 297 293 275 255 255 245 260 258 267 260 230 226 210 229 229
44 41 44 43 33 27 39 32 26 3 355 10 12 360 356 355 358 358 355 358 353 7 5 341 293 263 247 256 262 266 282 328 319 311 300 286 280 274 246 238 229 227 222
51 39 29 30 29 16 13 10 14 6 357 355 2 357 348 345 351 353 351 348 348 347 353 348 353 350 339 334 357 338 2 6 338 320 302 278 272 268 256 246 234 229 232